Weather History for New River MCAS, NC

Change the Weather History Date:

Friday, July 26, 2013

  Actual Average Record
Temperature  
Mean Temperature 78 °F -  
Max Temperature 87 °F 86 °F 96 °F (2005)
Min Temperature 69 °F 70 °F 69 °F (2008)
Cooling Degree Days 12    
Growing Degree Days 28 (Base 50)    
Moisture  
Dew Point 69 °F    
Average Humidity 74    
Maximum Humidity 93    
Minimum Humidity 49    
Precipitation  
Precipitation 0.00 in - - ()
Sea Level Pressure  
Sea Level Pressure 30.07 in    
Wind  
Wind Speed 5 mph (ESE)    
Max Wind Speed 10 mph    
Max Gust Speed -    
Visibility 7 miles    
Events      
Averages and records for this station are not official NWS values.
T = Trace of Precipitation, MM = Missing Value Source: NWS Daily Summary

Daily Weather History Graph

Daily Weather History Graph

Search for Another Location

Airport:

Trip Planner

Search our weather history database for the weather conditions in past years. The results will help you decide how hot, cold, wet, or windy it might be!

Date:

Astronomy

Jul. 26, 2013 Rise Set
Actual Time 6:15 AM EDT 8:16 PM EDT
Civil Twilight 5:47 AM EDT 8:44 PM EDT
Nautical Twilight 5:13 AM EDT 9:18 PM EDT
Astronomical Twilight 4:36 AM EDT 9:55 PM EDT
Moon 10:44 PM EDT (7/26) 10:35 AM EDT (7/26)
Length of Visible Light 14h 57m
Length of Day
14h 01m
Waning Gibbous, 80% of the Moon is Illuminated
Jul 26
Waning Gibbous
Jul 29
Last Quarter
Aug 6
New
Aug 14
First Quarter
Aug 20
Full

Hourly Weather History & Observations

Time (EDT) Temp. Heat Index Dew Point Humidity Pressure Visibility Wind Dir Wind Speed Gust Speed Precip Events Conditions
1:56 AM 72.0 °F - 68.0 °F 87% 30.02 in 10.0 mi North 4.6 mph - N/A   Clear
2:56 AM 71.1 °F - 68.0 °F 90% 30.03 in 3.0 mi North 5.8 mph - N/A   Clear
3:56 AM 70.0 °F - 68.0 °F 93% 30.02 in 9.0 mi North 4.6 mph - N/A   Clear
4:56 AM 69.1 °F - 66.9 °F 93% 30.03 in 9.0 mi North 4.6 mph - N/A   Clear
5:56 AM 69.1 °F - 66.9 °F 93% 30.06 in 8.0 mi North 3.5 mph - N/A   Clear
6:56 AM 69.1 °F - 66.9 °F 93% 30.08 in 6.0 mi NNE 6.9 mph - N/A   Scattered Clouds
7:56 AM 72.0 °F - 68.0 °F 87% 30.09 in 8.0 mi NE 5.8 mph - N/A   Clear
8:56 AM 75.0 °F - 69.1 °F 82% 30.10 in 9.0 mi East 5.8 mph - N/A   Clear
9:56 AM 78.1 °F - 68.0 °F 71% 30.10 in 10.0 mi ENE 5.8 mph - N/A   Partly Cloudy
10:56 AM 80.1 °F 82.3 °F 66.9 °F 64% 30.11 in 10.0 mi Variable 3.5 mph - N/A   Scattered Clouds
11:56 AM 82.0 °F 84.5 °F 66.9 °F 60% 30.11 in 10.0 mi ESE 5.8 mph - N/A   Clear
12:22 PM 82.4 °F 84.6 °F 66.2 °F 58% 30.09 in 10.0 mi Variable 5.8 mph - N/A   Partly Cloudy
12:56 PM 82.9 °F 85.0 °F 66.0 °F 56% 30.09 in 10.0 mi Calm Calm - N/A   Clear
1:25 PM 84.2 °F 85.6 °F 64.4 °F 51% 30.08 in 1.8 mi Calm Calm - N/A   Haze
1:29 PM 84.2 °F 85.6 °F 64.4 °F 51% 30.08 in 10.0 mi Variable 3.5 mph - N/A   Clear
1:56 PM 84.9 °F 86.1 °F 64.0 °F 49% 30.08 in 10.0 mi Calm Calm - N/A   Clear
2:56 PM 86.0 °F 88.2 °F 66.0 °F 51% 30.07 in 10.0 mi SSE 6.9 mph - N/A   Clear
3:56 PM 82.9 °F 85.4 °F 66.9 °F 58% 30.06 in 10.0 mi East 5.8 mph - N/A   Partly Cloudy
4:56 PM 84.0 °F 88.4 °F 70.0 °F 63% 30.06 in 10.0 mi SSE 4.6 mph - N/A   Partly Cloudy
5:05 PM 84.2 °F 89.6 °F 71.6 °F 66% 30.05 in 0.8 mi ESE 5.8 mph - N/A   Haze
5:17 PM 82.4 °F 87.2 °F 71.6 °F 70% 30.05 in 0.5 mi SSE 8.1 mph - N/A   Haze
5:22 PM 82.4 °F 87.2 °F 71.6 °F 70% 30.05 in 1.0 mi SE 8.1 mph - N/A   Haze
5:28 PM 82.4 °F 87.2 °F 71.6 °F 70% 30.06 in 3.0 mi South 4.6 mph - N/A   Haze
5:56 PM 81.0 °F 84.4 °F 70.0 °F 69% 30.06 in 1.8 mi SE 10.4 mph - N/A   Haze
6:11 PM 80.6 °F 83.9 °F 69.8 °F 70% 30.06 in 9.0 mi SE 6.9 mph - N/A   Mostly Cloudy
6:50 PM 80.6 °F 83.9 °F 69.8 °F 70% 30.05 in 0.8 mi SE 8.1 mph - N/A   Haze
6:56 PM 80.1 °F 83.2 °F 70.0 °F 71% 30.06 in 1.2 mi SSE 9.2 mph - N/A   Haze
7:15 PM 78.8 °F - 69.8 °F 74% 30.06 in 10.0 mi SSE 9.2 mph - N/A   Clear
7:22 PM 78.8 °F - 69.8 °F 74% 30.06 in 1.2 mi SSE 6.9 mph - N/A   Haze
7:32 PM 78.8 °F - 69.8 °F 74% 30.06 in 10.0 mi SE 8.1 mph - N/A   Clear
7:56 PM 77.0 °F - 70.0 °F 79% 30.08 in 10.0 mi SSE 6.9 mph - N/A   Clear
8:56 PM 75.9 °F - 70.0 °F 82% 30.08 in 10.0 mi SE 5.8 mph - N/A   Clear
9:56 PM 75.0 °F - 69.1 °F 82% 30.08 in 10.0 mi SE 4.6 mph - N/A   Clear
10:41 PM 73.4 °F - 69.8 °F 88% 30.08 in 1.8 mi Calm Calm - N/A   Haze
10:50 PM 75.2 °F - 69.8 °F 83% 30.08 in 4.0 mi SE 4.6 mph - N/A   Haze
11:03 PM 73.4 °F - 69.8 °F 88% 30.07 in 2.5 mi SE 4.6 mph - N/A   Haze
11:12 PM 73.4 °F - 69.8 °F 88% 30.07 in 10.0 mi ESE 3.5 mph - N/A   Clear
11:56 PM 75.0 °F - 70.0 °F 84% 30.08 in 10.0 mi East 4.6 mph - N/A   Clear